User: anonymous   Login
Location: Riverside
(39.1734°N, 77.8561°W)
Time: 19:46:29
(UTC+00:00)
Language:

JY1SAT - Orbit

View from above orbital plane
View from above orbital plane
View from above satellite
View from above satellite

Ground track
Ground track

The orbit data is extracted from the following two-line orbital elements,

1 43803U 18099AX  19138.61192882 -.00000190  00000-0 -11944-4 0  9999
2 43803  97.7437 210.9388 0016647  74.5731  61.7360 14.95243362 24771
Epoch (UTC): 18 May 2019 14:41:10
Eccentricity: 0.0016647
inclination: 97.7437°
perigee height: 570 km
apogee height: 593 km
right ascension of ascending node: 210.9388°
argument of perigee: 74.5731°
revolutions per day: 14.95243362
mean anomaly at epoch: 61.7360°
orbit number at epoch: 2477

The dashed part of the orbit path shows where the satellite is in the earth's shadow,  

DLR